Fort Benton (79S)
Fort Benton, MT
Field Elevation: 2869
Lat: 47°50.42N  Long: 110°38.11W
CTAF/Unicom Freq: 122.8000
   
     For Weather-by-Phone, call 406-622-5976
Weather Advisories
11/27/2014 19:17 Z
Altimeter 29.75" Hg
Wind 220° @ 13 KT
Gusts 18 KT
Visibility 10 SM
Temperature 13° C (55° F)
Dewpoint 3° C (37° F)
Relative Humidity 53%
Density Altitude --
Condensation Altitude 7,600 feet
  Wind and Runways
Indicated Runway = 23
History
 
 
More Info
All DigiWx sites map
NOAA Forecast
 
Airport IQ 5010
(6S5) Ravalli County
(S71) Edgar Obie
 
about DigiWx
 
FAA Disclaimer: The data displayed is for advisory purposes only and is not to be used for flight planning or operations. For official data, please call 406-622-5976 to hear the current automated AWOS voice message.
  METAR 79S 271917Z AUTO 22013G18KT 10SM 13/03 A2975